Theta_e
345 347 349 350 351 352 352 352 353 352 352 351 350 350 351 351 350 350 349 349 350 350 350 350 350 351 351 351 351 351 351 350 350 350 349 349 348 347 348 348 349 349 349 349 350 350 351 351 352 351 351 353 355 354 352 353 353 351 351 349 348 351 351 350 347 341 342 343 342 342 341 340 341 341 342 343 343 343 343 343 344 345 346 346 347
344 347 349 350 351 352 352 353 353 353 353 352 351 350 351 351 350 350 348 348 349 350 350 351 352 352 351 352 352 351 352 352 351 350 349 349 346 347 349 348 349 350 350 350 350 351 352 353 354 351 350 353 354 352 351 352 354 353 352 352 351 351 351 349 346 344 345 344 343 344 344 342 341 341 342 342 342 343 342 343 343 344 346 346 346
343 346 349 350 351 351 352 353 353 353 353 352 352 351 351 351 350 349 347 347 349 348 348 350 351 351 352 352 352 352 352 352 351 348 347 348 347 347 350 350 350 350 351 351 350 350 351 354 354 352 352 353 352 352 353 354 355 354 353 354 353 352 351 349 345 344 346 345 344 345 346 345 343 343 345 343 342 342 342 343 343 343 345 344 345
343 344 348 350 351 351 352 353 353 353 353 352 353 352 351 350 349 347 347 346 347 346 347 349 350 350 350 350 351 351 350 349 349 346 345 347 347 347 348 349 350 351 351 351 351 351 352 353 354 354 353 352 352 352 355 356 356 355 355 353 353 354 354 352 348 345 344 345 348 350 349 348 345 345 347 345 342 342 343 343 343 344 345 343 343
344 344 347 350 351 351 352 353 353 352 353 353 352 352 351 350 347 345 346 346 345 346 346 347 348 349 349 350 350 350 350 350 351 350 349 349 350 349 348 348 349 350 351 350 351 351 353 353 353 354 354 353 352 353 355 356 355 355 354 354 355 354 354 354 351 348 345 343 348 352 351 349 346 345 346 347 343 341 343 344 343 344 345 343 344
343 344 347 350 351 352 353 353 353 352 353 353 352 352 352 350 347 345 346 346 345 345 346 347 348 349 350 351 352 352 352 352 352 353 352 352 353 353 351 350 350 351 352 351 351 351 352 354 353 354 355 354 353 354 355 355 355 356 355 355 357 353 353 357 353 349 347 344 346 349 349 349 349 348 347 347 346 342 343 344 343 343 344 343 343
342 344 348 350 350 352 353 353 353 352 352 353 352 351 352 351 347 344 346 346 346 345 346 346 347 348 349 351 352 352 353 353 352 352 353 353 353 353 353 353 351 352 354 352 350 352 353 354 354 354 356 356 354 355 357 356 355 356 354 355 356 351 352 357 356 352 351 349 347 347 347 347 349 350 347 346 347 346 345 344 343 343 343 342 342
341 343 346 349 351 352 353 353 352 352 352 352 352 352 352 350 346 345 345 346 346 346 346 346 347 347 348 350 351 351 352 351 350 349 351 351 351 352 354 354 352 351 354 353 351 353 354 353 354 353 354 355 355 357 358 356 354 353 353 353 354 352 351 354 355 354 354 352 349 347 347 345 345 347 345 343 345 345 345 343 343 343 341 342 343
341 342 345 349 352 352 352 353 353 352 352 352 352 352 352 350 347 345 345 345 346 346 346 346 346 347 347 350 351 350 351 350 349 348 348 349 350 351 352 353 352 350 351 352 353 353 353 353 353 352 353 355 356 358 357 355 353 353 353 354 354 353 351 352 353 352 352 353 350 349 350 348 347 347 345 344 345 345 344 343 343 343 342 343 344
341 341 346 349 350 351 352 353 353 352 352 352 352 352 352 352 349 347 345 346 347 346 346 346 346 347 347 348 350 350 349 349 348 348 348 348 350 352 352 352 352 353 352 351 351 352 352 353 354 353 354 355 356 357 357 354 353 353 354 354 354 353 351 351 353 352 349 351 350 348 350 352 350 349 347 346 347 347 346 344 343 343 343 346 347
341 341 346 349 350 351 351 352 353 353 353 352 352 352 352 352 351 348 346 346 347 346 346 346 346 346 346 347 349 350 349 347 347 348 348 348 350 353 353 352 352 354 354 352 351 352 352 353 355 356 355 355 355 356 357 356 354 355 355 353 352 352 351 351 354 353 350 351 351 349 350 352 350 350 349 348 348 348 346 344 344 344 345 347 349
341 342 344 348 350 351 351 352 353 353 353 352 352 352 352 352 351 349 348 347 347 347 346 345 346 346 347 348 349 349 349 348 348 349 348 348 352 353 353 352 353 353 354 353 352 353 354 354 355 357 356 355 356 356 357 356 356 356 355 353 354 353 352 353 355 356 355 353 353 352 351 350 349 349 348 349 349 348 348 347 346 347 348 348 350
341 343 343 347 351 352 351 351 352 353 353 352 352 352 352 352 350 349 349 347 348 348 347 347 347 347 347 348 348 349 349 348 348 349 349 349 352 353 352 353 354 354 355 354 353 354 355 354 355 356 356 355 354 355 355 355 356 356 355 354 355 354 354 355 356 357 357 355 355 353 352 350 350 349 347 348 348 348 350 349 349 350 349 349 351
341 343 343 346 349 351 351 351 352 352 352 352 352 352 353 353 351 350 350 348 348 348 348 348 348 348 348 347 348 350 349 348 348 349 350 349 350 352 353 354 355 355 356 355 353 354 356 356 355 355 355 354 353 353 354 354 354 355 355 355 356 354 353 355 356 357 357 357 357 355 354 351 351 351 349 349 348 347 349 349 351 351 349 348 351
342 344 344 347 350 350 351 351 352 351 352 352 352 353 354 353 352 351 351 350 348 349 349 349 349 348 348 348 349 350 349 348 348 348 349 348 349 351 351 352 355 355 355 354 351 351 355 356 355 356 356 354 353 353 355 355 355 354 354 355 356 356 355 355 357 357 356 357 358 358 356 354 353 353 351 350 349 348 349 349 351 352 350 350 349
343 344 345 348 350 350 351 351 351 351 351 352 352 353 354 354 352 352 352 351 350 349 349 349 350 349 349 348 349 350 349 348 348 348 348 348 349 350 349 350 352 354 354 353 350 349 353 356 356 356 356 355 354 354 355 356 355 355 355 355 357 358 357 357 358 357 357 357 357 358 358 356 355 355 353 353 351 350 350 350 350 351 352 352 350
344 345 346 348 350 350 351 351 350 351 351 351 353 353 353 354 353 353 353 353 352 350 350 350 350 350 349 348 349 349 349 349 349 348 348 349 349 349 350 350 351 352 353 354 353 351 352 355 356 357 356 355 356 355 355 356 355 356 358 357 358 358 358 358 358 358 358 357 357 357 358 358 358 356 356 355 354 352 353 352 351 351 353 353 352
346 345 347 349 351 351 350 351 350 351 351 351 353 353 353 353 353 353 354 354 353 353 352 352 350 350 350 348 348 349 350 351 352 350 349 350 349 349 350 351 351 352 352 354 354 354 353 354 354 355 355 354 355 355 355 355 355 357 358 358 358 357 357 357 358 358 358 358 357 357 357 358 358 357 357 357 356 355 355 355 354 352 352 354 355
348 345 347 349 351 351 351 351 350 351 352 352 352 352 353 353 353 354 354 353 354 354 355 354 352 352 351 350 349 349 351 352 352 351 350 350 351 350 350 351 351 352 352 352 353 355 355 354 354 355 355 354 354 355 355 354 355 357 358 359 358 357 357 358 357 357 358 359 358 358 358 358 358 358 357 358 358 357 356 356 355 352 350 353 356
349 346 347 349 350 351 351 351 350 351 352 352 352 352 353 353 353 354 354 354 354 354 356 356 354 354 353 351 350 349 351 352 351 350 351 352 352 352 352 353 353 353 353 353 353 354 355 355 355 355 355 355 356 355 355 355 354 355 356 357 358 358 358 359 358 358 358 359 359 359 359 359 359 359 359 358 358 358 357 356 355 353 351 352 355
352 348 346 347 350 350 351 351 350 351 352 352 352 353 353 353 353 354 354 354 355 355 356 356 354 354 354 352 351 350 351 352 353 351 352 353 353 353 354 354 354 353 353 353 352 352 353 354 356 356 356 356 355 354 355 355 354 354 354 356 357 357 358 358 359 359 358 359 360 360 360 359 359 360 360 359 358 357 357 356 355 355 354 353 354
352 350 344 345 349 350 351 352 351 351 352 352 352 353 353 354 353 354 354 354 354 355 355 356 355 355 354 353 352 352 352 353 354 354 354 355 354 354 354 354 355 354 353 354 354 354 354 354 356 356 356 356 355 353 354 355 355 354 355 356 357 357 358 358 359 359 358 359 360 360 360 359 358 359 360 359 358 357 356 356 356 355 356 356 354
352 352 347 345 348 349 350 352 352 352 352 352 353 353 354 354 354 354 355 355 354 354 356 356 356 355 354 354 354 354 353 354 355 356 356 356 355 355 355 354 355 355 355 354 354 356 356 354 354 355 355 355 355 354 354 355 354 353 355 356 357 358 359 359 359 359 359 358 359 359 358 358 357 357 358 358 358 358 357 356 357 356 357 357 355
354 355 352 346 346 349 351 352 352 352 353 353 354 354 354 354 355 355 355 356 355 355 356 356 354 355 355 355 355 355 355 355 356 356 356 356 356 356 356 355 355 355 356 355 354 356 355 353 353 355 355 355 355 354 354 354 353 353 354 356 357 358 358 359 359 360 359 358 358 358 358 358 358 358 357 357 357 359 358 358 358 358 358 358 358
358 357 354 350 348 349 350 351 351 351 351 352 352 353 355 355 355 355 356 356 355 355 356 356 355 356 356 357 357 357 356 356 356 356 356 356 356 356 356 355 355 355 356 356 354 354 354 353 354 355 356 355 355 354 353 354 355 355 355 356 357 358 358 359 359 359 360 360 359 359 358 359 359 359 358 357 356 358 359 358 358 358 359 359 359
356 355 355 354 352 350 350 350 349 349 350 350 349 351 353 354 354 354 356 355 353 353 355 356 356 357 358 358 358 357 357 357 357 357 356 356 355 355 355 355 355 355 355 355 355 355 354 353 353 355 356 355 354 354 354 354 356 357 356 357 357 358 358 358 359 359 359 359 359 359 359 359 360 360 359 358 358 358 359 358 358 358 359 359 359
351 352 352 353 352 351 352 352 349 348 348 348 349 350 351 351 352 353 354 355 354 354 355 356 357 358 358 358 358 358 358 358 358 357 357 356 355 355 355 355 355 355 354 354 354 354 354 353 353 354 355 355 354 354 354 354 355 357 357 357 357 358 358 358 358 358 358 359 359 359 359 359 359 360 360 360 360 359 358 359 358 358 359 359 358
349 350 350 351 352 352 353 352 349 347 347 348 349 350 350 350 351 351 351 353 355 356 357 357 357 358 358 358 358 358 358 358 358 358 358 357 357 356 356 356 356 356 355 354 354 354 354 354 355 354 355 355 355 355 355 354 354 355 357 358 358 358 357 356 355 355 356 357 358 359 358 359 359 359 359 359 360 360 360 359 359 359 359 359 358
349 349 350 351 352 353 352 351 349 348 348 348 349 350 350 350 351 351 350 350 352 354 355 357 358 359 358 358 358 357 358 358 358 358 358 357 357 356 356 356 356 356 356 355 355 355 355 356 356 355 355 356 356 357 356 354 354 355 356 355 356 357 355 353 353 353 353 355 356 358 359 358 358 357 357 357 357 357 357 358 359 360 360 359 359
350 349 349 350 351 350 349 350 351 349 348 348 348 349 350 350 350 350 350 351 351 352 353 354 355 357 358 358 358 357 358 358 358 358 357 356 355 355 354 355 355 356 356 355 355 356 356 356 357 357 356 355 355 355 354 353 353 355 355 352 353 355 354 353 354 353 353 356 357 359 359 357 356 355 354 355 355 354 355 355 356 358 358 358 359
349 348 347 347 348 348 348 349 350 350 348 348 348 349 349 349 350 350 350 351 350 351 352 352 352 354 357 358 358 358 358 358 357 357 355 354 355 354 354 355 355 355 354 354 355 355 356 356 356 357 357 355 354 353 352 351 351 353 353 351 351 354 353 352 354 354 355 358 359 359 359 357 357 355 355 354 354 353 354 353 353 354 355 357 357
347 346 346 346 346 347 348 348 349 349 348 347 347 348 348 349 350 350 350 350 350 350 352 352 352 353 355 357 357 357 357 357 357 356 355 355 355 354 354 355 354 354 354 354 354 354 354 355 355 356 356 355 354 353 351 350 350 350 352 352 353 355 355 355 355 356 356 359 359 359 358 357 357 357 356 355 354 353 353 352 352 352 352 355 357
345 345 345 345 346 347 347 348 348 348 348 347 347 348 348 348 349 350 350 350 350 350 350 351 352 352 353 355 354 354 355 356 356 355 355 355 354 354 355 354 354 353 353 353 353 352 352 353 354 354 353 354 354 352 350 350 351 351 351 353 354 357 358 357 357 357 358 358 358 359 359 358 358 357 356 356 355 354 352 351 352 352 352 355 356
345 345 345 345 346 346 346 346 347 347 347 347 347 347 347 348 348 350 350 350 350 350 349 349 350 350 351 351 352 352 353 354 355 355 355 354 353 353 353 353 353 353 352 351 351 351 351 351 351 351 352 354 354 352 350 350 351 352 352 352 353 356 359 359 358 358 359 358 358 358 359 359 359 358 356 355 355 354 352 353 355 355 354 354 354
345 344 344 345 345 346 345 345 346 346 347 347 347 347 347 348 348 349 350 349 349 349 348 348 348 349 349 349 350 351 351 351 351 352 353 352 352 352 351 350 350 350 350 349 349 349 350 349 349 350 351 353 352 350 350 351 351 351 352 352 352 354 357 358 358 359 359 359 358 358 358 359 358 358 357 354 353 353 352 354 355 354 354 354 353
342 341 341 341 342 342 342 342 342 343 344 345 346 347 347 348 348 348 349 348 348 347 347 347 347 347 348 348 349 349 348 347 347 348 349 348 349 350 350 349 349 349 349 348 348 348 348 348 348 348 349 349 349 349 349 350 350 350 351 351 352 352 354 356 358 358 357 357 357 357 357 357 356 356 355 353 353 352 352 354 354 352 353 354 352
340 339 338 338 338 338 338 338 338 339 340 342 343 345 347 348 348 348 348 348 347 346 346 346 346 346 346 347 348 347 346 346 346 346 346 346 347 348 347 348 350 350 350 350 350 349 349 348 347 347 346 347 347 347 348 348 349 349 350 351 351 352 353 354 355 356 355 355 356 355 354 353 353 354 352 351 352 350 351 355 354 351 353 354 351
339 338 337 336 336 336 336 336 336 337 337 338 339 341 343 345 346 346 346 346 346 346 345 345 346 346 346 346 346 345 345 345 345 344 344 344 345 345 344 346 349 350 350 350 351 351 351 350 348 347 347 347 346 347 346 346 347 347 347 348 349 350 351 352 353 354 353 353 353 353 351 350 351 353 351 349 350 349 351 355 355 351 351 353 352
337 336 335 335 335 335 335 335 335 335 335 336 337 338 338 339 341 342 343 343 343 343 344 344 344 344 345 345 345 345 344 344 344 344 343 344 345 345 345 346 349 349 348 348 348 349 349 349 348 347 346 346 345 345 345 345 345 345 345 346 348 349 350 351 352 352 352 352 353 352 351 349 349 350 349 348 350 349 348 352 354 352 352 353 353
334 333 333 333 333 333 333 333 333 333 334 335 336 336 336 337 338 339 339 340 341 341 342 342 342 343 343 343 343 343 343 343 343 343 343 343 344 345 346 347 348 347 347 347 347 347 347 346 345 345 345 344 344 343 343 343 344 344 344 345 347 349 349 349 350 350 350 351 351 350 349 348 348 349 349 349 350 349 348 349 352 354 354 353 351
333 332 332 331 331 330 330 329 329 331 333 334 334 334 335 335 337 337 337 338 338 339 339 339 339 340 340 340 341 340 340 341 341 342 343 343 343 344 344 345 346 345 346 346 346 345 344 343 341 341 341 340 339 340 340 341 342 343 343 344 345 346 347 347 348 349 349 349 349 347 346 346 347 348 348 349 350 350 348 347 349 351 351 350 351
332 331 330 329 329 328 327 326 326 327 329 330 331 331 332 334 335 336 337 338 338 337 336 336 336 337 337 337 337 338 338 339 340 340 340 340 339 340 341 342 343 344 343 343 342 341 339 337 336 336 335 335 336 337 337 338 339 341 341 341 342 343 343 343 345 346 347 347 347 346 345 345 345 345 346 348 350 349 346 346 347 349 349 349 351
331 330 329 329 328 327 326 326 325 325 324 324 325 326 328 331 333 332 330 332 334 334 334 333 331 333 334 334 334 335 335 336 336 337 338 337 336 336 337 337 339 339 338 336 335 336 335 333 332 333 333 333 334 334 334 334 336 337 337 338 339 339 340 341 342 343 343 343 343 343 343 344 343 343 345 347 348 346 343 341 343 346 347 346 346
331 331 330 329 329 328 328 327 327 326 325 325 326 326 327 330 332 329 324 323 324 329 333 332 330 330 331 329 328 329 331 333 333 333 333 334 335 334 334 334 334 334 334 332 331 333 333 331 330 331 331 332 332 331 331 331 331 331 330 329 329 330 332 334 335 337 339 339 339 339 339 340 340 340 341 340 339 338 339 339 340 342 343 342 340
331 331 330 329 329 328 328 327 327 327 326 326 327 329 329 330 331 329 326 324 324 328 334 335 333 330 326 323 322 323 326 330 332 331 328 328 331 332 331 331 332 331 331 330 330 330 329 327 327 328 327 327 327 325 323 322 321 320 319 317 316 316 318 320 322 324 328 333 336 337 338 337 336 336 336 334 331 333 335 335 334 334 334 333 332
330 330 329 328 328 328 327 327 327 326 326 325 325 326 327 327 329 329 330 330 330 332 335 335 333 331 328 327 327 327 329 331 333 331 329 328 330 329 328 329 330 330 329 328 327 326 325 323 323 322 321 320 319 317 316 315 313 312 312 311 310 310 310 310 311 312 315 321 327 330 332 333 334 333 333 331 330 331 331 330 328 327 326 325 325
328 328 328 328 328 327 326 326 326 326 326 326 324 324 324 324 324 327 330 332 332 333 334 333 331 330 329 328 327 328 329 331 332 332 332 331 331 330 328 328 329 329 329 328 326 324 322 321 321 319 318 317 317 317 316 315 313 312 311 310 309 309 308 309 309 310 313 319 322 321 324 329 332 332 331 330 329 329 329 329 329 327 326 325 325
328 327 327 328 328 327 326 326 326 325 325 324 323 323 324 323 323 324 326 329 330 331 331 330 329 328 327 325 323 323 324 327 330 331 332 332 333 332 331 330 329 329 330 329 327 325 323 322 321 320 320 320 320 317 315 313 312 312 310 310 310 310 309 310 313 315 319 325 325 323 325 329 331 331 330 330 330 330 329 330 329 326 325 326 326
328 326 325 326 327 327 326 326 326 325 323 322 321 321 322 323 324 323 323 325 327 329 329 328 327 326 324 321 320 319 321 325 328 330 330 330 331 331 331 331 331 330 330 329 327 324 322 320 319 319 319 320 319 315 312 311 310 309 309 311 314 314 314 317 321 324 326 328 329 329 330 331 331 331 330 330 330 329 329 330 329 325 323 325 325
327 325 325 325 325 326 327 326 325 324 323 322 320 320 320 321 321 322 323 323 325 327 328 328 327 324 321 318 317 317 320 323 325 325 325 324 324 324 325 325 324 323 322 320 319 317 315 315 314 313 313 314 314 312 311 310 309 310 312 316 319 319 321 324 327 327 328 330 331 332 332 332 331 331 331 329 329 329 329 329 329 326 325 326 326
327 326 327 326 325 326 327 326 325 324 324 323 322 321 321 320 320 321 322 323 323 325 327 328 326 323 320 317 316 316 317 319 321 321 321 320 318 316 316 316 315 315 314 314 313 312 311 310 310 310 310 310 310 310 310 310 312 315 318 321 322 323 325 326 326 327 328 329 330 330 330 331 330 330 329 328 328 329 328 328 327 326 325 326 326
Wind_Speed
9 11 12 13 13 13 13 13 14 14 14 16 16 15 15 14 14 14 14 14 13 13 14 13 13 12 11 11 11 10 10 9 8 8 8 9 10 10 8 8 7 6 5 4 3 3 2 1 0 1 2 3 4 3 4 5 5 5 4 5 5 4 4 6 7 4 2 2 4 4 5 5 4 4 3 3 3 3 4 3 2 1 1 1 1
8 10 12 13 13 14 13 13 15 15 15 16 17 16 16 15 15 16 16 16 15 15 15 14 13 12 11 11 10 10 10 8 8 9 9 9 10 9 8 8 7 6 5 4 3 3 2 1 0 1 1 2 3 3 4 5 5 5 5 5 4 3 4 5 5 3 2 2 3 4 3 3 2 3 3 3 4 4 4 3 2 0 0 1 1
8 10 13 15 15 15 14 13 14 15 14 16 16 16 17 15 16 17 18 17 16 17 18 16 14 12 10 10 10 9 9 8 8 10 10 9 9 9 8 7 7 6 4 3 3 3 2 1 0 0 0 1 2 3 4 4 4 5 5 6 4 2 3 4 4 3 1 1 1 2 2 2 1 1 3 4 5 5 5 4 3 2 1 1 2
10 11 13 15 15 15 15 14 15 14 15 16 16 17 17 17 19 20 20 19 18 19 19 18 16 14 11 10 10 8 8 9 9 10 10 9 9 9 8 7 5 4 3 2 2 3 2 1 1 1 1 1 2 3 3 3 4 4 5 6 5 3 3 4 5 3 1 0 1 0 1 1 1 1 3 5 5 5 5 4 4 2 2 2 4
11 12 12 14 16 17 16 15 15 15 16 17 18 18 18 19 21 22 22 21 20 20 20 19 17 14 12 10 9 8 8 9 9 9 9 9 9 8 8 6 5 4 4 3 3 3 3 2 2 2 2 2 2 2 2 3 3 4 5 6 7 6 4 3 4 4 2 0 0 1 0 1 1 2 4 4 4 5 4 3 2 2 1 2 5
12 12 13 16 17 17 16 16 17 16 17 17 18 18 17 19 22 23 23 22 21 20 20 20 18 16 14 10 9 9 8 8 9 8 9 9 8 8 8 7 6 5 5 5 4 4 3 3 3 3 2 2 1 1 2 2 2 3 4 5 6 7 5 3 3 3 3 3 1 1 1 1 1 2 2 2 2 3 3 2 1 1 1 3 5
11 12 14 15 17 17 17 18 19 18 18 17 17 18 17 19 22 24 24 24 23 22 21 20 19 18 16 12 10 9 8 8 10 9 9 9 8 8 8 8 8 7 6 6 6 5 5 4 4 3 2 2 1 1 1 2 1 2 4 4 5 6 7 5 3 2 3 4 4 3 1 1 1 1 2 2 2 1 2 2 2 3 3 3 4
11 12 13 15 17 18 19 20 21 20 18 17 18 18 19 21 24 24 24 25 24 23 22 21 20 19 18 14 11 11 9 9 11 11 10 10 9 8 8 8 9 9 8 7 7 6 6 5 4 4 3 2 1 1 1 1 1 2 3 4 4 5 6 6 5 3 2 3 4 4 3 2 1 0 1 2 2 1 1 2 2 3 3 2 4
13 13 14 17 19 20 22 21 21 20 19 19 20 19 19 22 24 24 24 25 24 24 23 23 21 20 19 15 13 13 11 10 11 12 12 11 11 10 9 8 9 9 10 9 9 8 7 5 4 4 3 3 2 1 1 1 1 1 2 3 4 4 3 5 5 5 4 3 3 3 2 2 2 1 0 1 2 2 2 1 2 2 1 2 4
13 14 16 19 22 22 22 21 20 20 19 19 19 18 18 21 24 25 25 24 24 24 24 24 23 21 20 18 15 14 13 13 13 12 13 13 12 11 10 9 9 9 10 11 11 9 8 7 5 4 3 3 3 2 2 2 2 1 1 2 3 3 2 2 4 5 5 4 4 4 3 2 1 1 1 1 1 2 2 2 2 2 2 2 5
12 13 16 20 21 21 20 20 19 19 17 18 18 18 19 20 23 25 25 25 24 24 24 24 24 23 21 20 17 15 14 14 14 13 14 14 13 12 11 10 9 9 9 11 11 10 9 8 6 4 4 4 5 4 2 2 2 1 2 2 2 2 1 1 2 3 4 4 4 4 4 3 2 2 2 2 2 2 2 1 1 2 2 3 4
12 12 14 16 16 17 18 18 18 17 17 18 19 19 19 21 23 24 25 26 25 24 25 24 24 24 23 21 18 16 15 15 15 14 15 15 14 12 12 11 11 10 9 10 10 10 10 9 7 6 6 6 6 5 4 3 2 2 2 2 2 1 1 2 2 2 2 3 3 3 3 3 2 2 2 2 2 2 2 1 1 1 2 2 3
13 12 12 13 13 16 18 18 17 17 18 19 20 20 20 22 25 26 26 27 26 25 25 25 25 25 24 22 20 17 16 16 16 16 15 15 14 13 13 12 12 11 10 10 10 9 10 10 8 7 7 7 7 7 5 4 3 3 2 2 2 2 2 2 2 2 2 2 2 2 2 2 2 2 2 1 1 1 1 2 1 1 2 2 3
12 12 12 12 14 18 19 19 19 20 20 21 21 20 20 21 25 27 27 28 28 26 26 26 26 26 25 24 22 19 18 18 18 17 15 16 15 14 13 11 11 11 10 11 11 10 10 10 9 8 7 7 7 8 7 6 5 4 4 3 3 4 3 3 3 3 3 2 2 2 2 1 1 1 1 1 2 2 2 2 2 2 2 2 2
11 12 13 13 17 19 19 20 21 21 22 22 21 21 20 21 26 29 28 29 29 28 28 27 27 27 26 25 23 21 19 19 20 18 17 17 16 15 15 13 11 11 11 11 12 12 11 11 10 9 8 8 8 8 8 7 7 5 5 4 4 4 4 4 4 4 4 3 3 3 3 2 1 1 1 2 2 3 3 2 2 2 2 3 2
11 12 13 14 18 19 19 20 21 21 22 23 22 22 22 23 27 30 29 29 30 30 30 29 28 27 27 27 25 23 21 20 20 20 18 17 17 16 16 15 13 12 12 11 12 13 13 12 10 10 9 9 8 9 9 8 8 7 6 6 5 4 5 5 5 4 4 4 4 3 3 3 2 2 2 1 1 1 1 1 2 2 2 2 2
11 12 12 14 17 19 19 20 21 22 22 23 22 24 26 26 28 30 28 27 29 31 31 30 29 28 28 28 26 24 23 21 20 20 18 18 18 17 16 16 15 14 13 12 12 12 13 12 11 10 10 9 9 9 9 9 9 8 7 7 6 5 6 6 6 6 5 5 5 4 4 4 3 3 2 1 1 1 1 1 2 2 2 2 2
10 11 12 13 17 19 20 21 22 23 24 24 25 27 28 28 29 29 28 27 28 28 29 30 30 29 28 28 27 25 23 21 19 19 19 18 18 18 17 16 16 15 14 13 13 13 13 13 13 12 11 11 10 10 10 11 10 9 8 8 8 7 8 8 8 8 7 6 6 5 5 5 5 4 4 3 2 2 2 2 3 3 3 2 2
10 11 10 12 16 19 21 21 22 23 23 24 26 26 26 26 27 28 28 28 27 25 23 26 28 27 27 28 28 26 24 21 20 20 20 19 19 18 18 17 16 15 14 14 13 13 13 13 13 12 12 11 11 10 11 12 12 10 9 8 8 8 9 9 8 8 8 7 7 7 6 6 5 5 5 4 4 4 4 4 4 4 4 3 3
8 9 8 10 16 20 21 22 23 23 23 23 23 23 23 24 25 26 25 24 25 24 22 24 26 24 25 27 28 28 25 22 22 22 21 19 19 18 17 16 16 15 15 14 14 13 12 12 12 11 11 11 11 11 11 12 13 12 11 9 8 8 8 9 8 8 8 8 8 8 7 6 6 6 6 6 5 5 5 5 5 5 5 4 4
6 6 7 9 13 18 20 21 21 21 21 21 21 22 23 23 23 25 24 22 24 25 24 24 25 23 24 27 28 28 25 23 22 22 20 19 18 18 16 15 15 16 15 14 14 14 13 12 12 12 12 12 13 13 12 13 14 14 14 12 10 10 9 9 9 9 9 8 8 8 7 7 7 7 7 7 7 6 6 6 6 6 6 5 5
6 7 8 9 11 15 16 17 18 18 19 21 21 21 22 23 23 24 24 23 24 24 23 23 24 24 25 26 26 26 26 23 21 20 19 18 17 17 17 16 15 15 15 14 14 13 13 13 12 12 13 13 14 15 14 13 14 14 13 11 10 10 10 9 9 10 10 9 9 9 8 8 8 8 8 8 8 7 7 7 6 6 6 6 6
6 6 7 7 10 12 14 15 17 17 19 21 21 21 23 24 23 23 23 24 24 23 22 23 24 25 25 24 24 24 25 23 20 18 17 16 15 16 16 16 14 13 13 14 13 12 13 14 13 13 13 13 14 15 15 15 15 14 14 12 10 10 9 9 10 10 10 10 9 10 9 9 9 9 9 9 9 8 7 7 7 7 6 6 6
5 5 4 4 5 7 10 13 15 16 18 19 19 21 22 22 21 21 22 23 23 21 20 24 27 27 24 23 22 22 22 21 19 17 17 16 15 14 15 15 13 12 12 13 13 13 13 14 13 13 14 14 14 15 15 15 15 15 14 13 12 11 11 11 10 10 10 10 10 10 10 9 9 9 10 10 10 9 8 8 7 7 7 6 6
5 5 4 3 3 4 6 8 11 13 14 15 15 16 16 18 21 22 21 22 24 23 22 24 26 25 22 21 20 20 20 20 19 18 17 17 16 14 15 15 14 13 13 12 13 13 13 14 14 13 14 14 14 15 15 15 14 14 15 14 13 13 12 12 11 11 10 10 10 10 10 10 9 9 10 10 10 10 10 9 8 7 7 7 6
4 5 5 4 4 4 5 6 7 9 10 12 14 15 13 14 18 19 20 24 29 29 26 24 22 21 20 19 18 19 19 20 20 18 17 17 17 16 15 15 15 15 14 13 13 13 14 15 15 14 14 14 15 15 15 15 14 14 15 14 14 14 13 12 12 12 11 11 11 11 11 11 11 10 10 10 10 10 10 10 10 9 8 7 7
6 5 5 5 5 6 7 9 11 12 13 16 18 19 17 17 17 15 14 19 25 27 27 26 23 21 20 20 20 20 19 19 19 18 17 17 17 16 16 15 15 14 14 14 14 14 14 15 15 15 15 15 15 15 15 16 15 15 15 15 15 13 11 11 12 12 12 12 12 12 12 12 12 12 12 11 10 10 10 11 10 10 9 9 9
7 5 5 5 5 6 7 10 13 16 18 19 20 21 22 23 23 22 21 20 20 20 23 24 23 22 22 22 22 21 19 19 19 18 16 16 15 15 14 13 13 13 13 13 13 13 14 13 14 14 14 14 15 14 14 15 15 15 15 15 13 12 12 13 13 14 14 13 13 12 12 12 13 13 13 12 12 11 10 11 11 10 9 9 9
6 5 4 4 4 4 5 7 10 14 17 20 21 21 22 24 25 27 30 29 25 22 21 21 21 23 25 24 23 21 18 18 19 17 16 16 16 16 16 15 13 12 12 12 12 12 11 12 12 13 13 13 13 13 14 14 15 15 14 14 13 14 15 15 14 14 14 14 15 13 12 13 13 14 15 15 14 14 13 12 11 11 11 11 10
4 3 2 2 1 1 2 4 7 10 14 18 20 21 21 22 23 26 29 30 29 26 23 22 21 23 23 22 22 21 19 18 18 18 19 20 20 20 19 17 16 14 13 13 12 11 11 10 10 11 12 13 13 14 14 15 15 14 14 14 13 14 16 16 15 15 15 14 14 14 13 14 15 16 16 16 16 16 16 15 13 12 12 12 11
5 3 1 2 2 0 2 4 7 10 13 15 17 18 19 18 20 24 27 28 28 28 26 24 23 23 20 19 21 20 19 19 20 21 23 24 23 21 20 18 17 16 16 15 14 13 11 10 10 10 11 13 13 14 15 14 14 14 13 14 14 14 16 17 16 15 15 14 14 14 14 15 15 16 15 16 17 17 17 17 16 14 14 13 12
7 5 4 3 3 2 3 5 7 8 11 14 15 17 18 18 18 20 22 25 27 27 26 26 26 23 19 19 19 19 18 19 21 24 25 24 23 22 20 19 17 16 16 16 15 14 13 12 11 10 11 12 13 14 14 13 14 14 14 14 15 15 15 16 16 15 15 15 14 14 14 14 14 15 16 16 17 18 18 17 17 16 16 15 13
7 6 6 5 5 4 4 5 6 7 9 12 15 17 19 20 19 19 21 23 25 25 23 22 21 21 20 20 20 20 20 21 22 24 25 24 23 22 21 20 19 18 17 16 15 14 14 13 12 12 14 13 13 15 15 14 15 16 16 16 15 14 14 15 15 15 16 16 16 16 15 14 14 15 16 16 17 19 18 18 18 16 14 13 12
8 8 7 7 7 6 5 6 6 7 8 10 12 16 18 19 17 18 20 22 24 24 22 20 20 21 21 22 23 23 24 24 24 24 23 22 21 20 20 19 19 18 18 16 16 14 14 13 13 13 13 11 12 16 16 15 15 15 16 17 16 15 15 15 15 15 16 17 17 17 16 15 15 15 16 16 16 17 18 19 15 9 7 9 10
9 10 10 11 11 10 8 7 6 7 9 10 12 15 17 17 17 17 18 20 24 25 23 23 24 22 19 19 20 20 20 19 20 20 20 20 19 17 17 16 16 16 15 14 13 12 11 11 11 10 9 10 13 16 16 15 15 15 15 16 16 16 16 16 16 16 17 17 18 18 17 17 16 16 17 18 17 16 17 15 9 4 5 8 9
10 11 12 14 15 14 14 13 13 11 9 10 11 12 13 15 17 17 16 17 21 23 23 22 21 19 17 18 17 15 13 12 13 14 14 14 13 12 12 12 12 12 12 11 10 8 7 8 9 8 8 9 12 13 13 14 14 14 14 15 15 16 17 16 15 16 18 19 19 19 19 18 18 19 20 21 19 17 15 9 5 6 7 7 8
13 13 14 16 17 17 18 19 20 19 16 14 10 8 11 13 15 17 18 18 19 21 23 22 21 19 19 18 15 13 11 10 11 10 8 6 5 6 8 9 9 9 9 9 8 7 7 7 8 8 9 9 10 10 11 12 12 12 13 14 15 15 16 16 15 15 18 20 20 20 19 18 18 19 22 23 21 20 15 8 7 10 9 8 10
15 15 15 16 18 18 17 18 21 23 22 21 20 13 4 1 5 9 13 15 17 19 22 21 20 19 18 15 13 12 12 11 10 9 8 8 8 9 11 10 7 6 7 7 7 7 7 8 8 8 8 8 9 10 10 9 9 10 10 11 12 13 12 12 12 14 16 18 18 19 19 19 16 17 20 22 22 21 15 8 10 13 12 11 13
15 15 15 16 16 17 18 19 22 26 26 27 28 27 23 19 14 10 9 9 11 15 18 18 17 15 14 12 11 11 12 10 8 7 7 8 8 8 9 8 5 4 6 6 5 5 6 6 5 5 6 7 7 8 8 8 8 8 8 7 7 8 9 9 10 11 12 12 12 13 16 18 17 16 18 20 20 20 17 13 12 12 13 14 15
14 13 14 15 17 18 20 20 21 24 28 31 32 30 29 28 26 24 21 17 15 15 15 16 17 16 14 13 12 11 10 8 7 6 5 5 6 7 6 6 6 5 6 7 4 4 4 4 3 4 4 4 4 5 5 6 6 6 7 5 4 5 7 8 9 9 10 10 10 11 15 16 16 16 17 18 18 18 18 18 17 14 14 14 15
13 12 12 15 17 18 19 20 21 23 27 32 35 32 27 25 28 30 28 24 23 23 21 21 22 21 19 17 15 13 11 10 8 5 3 2 3 3 4 5 6 4 4 5 5 4 4 4 3 2 2 1 0 1 2 4 4 4 5 5 3 4 6 7 7 8 9 10 10 12 17 18 17 18 18 17 17 17 16 18 19 18 17 15 15
12 12 12 14 15 18 20 21 22 24 26 30 34 33 29 26 26 26 25 25 26 26 26 28 27 26 25 23 20 17 14 12 10 7 4 4 4 2 1 2 2 2 3 4 5 5 5 6 6 5 4 4 3 1 1 1 2 2 3 3 3 4 5 6 6 6 8 9 9 12 17 19 18 19 19 17 18 18 16 15 16 17 16 15 14
11 12 12 13 14 16 18 18 21 24 26 28 30 30 29 28 26 24 24 26 25 25 27 30 29 28 28 27 24 21 19 17 15 13 12 11 11 10 9 8 7 7 8 8 7 7 8 9 8 7 7 7 5 4 4 4 4 3 2 2 2 3 4 4 4 5 7 8 10 12 15 16 16 17 17 17 18 18 16 14 14 14 13 13 12
10 11 12 13 14 15 15 16 18 21 23 23 23 23 24 25 23 21 20 23 24 24 23 26 27 27 27 28 26 23 21 20 20 20 20 19 18 17 15 13 13 14 14 13 11 10 10 11 11 10 9 8 7 6 6 7 7 6 5 4 4 4 5 5 5 6 6 7 9 10 11 12 13 14 14 15 15 14 14 14 14 14 14 12 11
10 10 11 12 14 14 15 15 16 18 20 21 19 18 18 18 18 17 16 17 20 20 19 21 24 25 24 24 23 21 19 18 19 21 21 20 20 20 18 17 18 19 17 15 13 11 11 12 12 11 9 8 8 8 8 8 7 7 7 7 8 9 9 9 8 8 7 6 7 9 9 9 9 11 12 12 10 10 12 14 12 11 12 11 9
10 10 10 11 13 14 14 15 15 15 17 19 19 18 15 13 13 14 14 14 14 15 16 18 20 20 20 19 19 17 15 14 15 16 16 16 18 20 20 19 19 18 16 15 14 12 11 12 11 10 9 8 8 8 8 7 7 7 8 9 10 10 9 8 8 7 6 5 6 7 8 8 7 8 9 9 8 8 11 11 7 5 7 9 10
9 10 10 10 12 13 14 14 15 14 15 17 19 19 17 14 12 11 11 12 13 14 15 16 16 17 17 17 16 15 12 12 12 12 13 15 16 18 19 18 16 14 12 12 12 10 9 9 8 8 8 7 8 8 9 9 10 10 11 11 10 10 8 7 6 5 5 5 6 6 6 5 5 5 6 7 7 7 8 8 7 5 6 9 11
10 11 11 11 11 12 13 14 14 15 16 18 19 19 18 16 15 12 10 11 12 13 14 15 15 15 16 15 15 14 12 11 11 10 11 13 13 14 16 16 14 12 9 8 8 8 7 6 6 6 6 6 7 9 11 12 12 13 13 12 11 10 9 8 7 6 5 4 5 6 5 3 3 4 4 4 4 4 4 5 4 5 6 7 8
11 12 13 13 12 12 13 14 14 16 18 20 21 20 19 18 17 15 13 12 11 12 13 13 13 14 14 13 13 13 12 12 11 12 13 13 13 14 14 13 12 10 8 7 7 7 6 5 4 4 4 4 5 7 9 11 11 12 12 12 11 10 9 9 8 7 6 4 3 4 5 4 5 6 5 4 4 4 4 4 2 0 3 5 6
11 11 12 13 13 12 13 13 14 16 18 19 20 20 20 19 18 17 16 15 12 10 11 11 11 12 12 11 12 11 11 11 12 13 15 16 15 15 14 13 12 10 9 8 7 7 7 6 5 4 4 4 4 5 7 8 9 9 10 10 11 10 9 9 9 8 7 6 4 4 5 6 6 7 6 6 7 6 7 7 6 4 3 5 6
9 9 10 10 11 11 11 12 13 14 16 17 18 19 20 19 18 16 15 15 14 13 11 9 9 9 9 10 10 10 10 10 11 12 14 15 16 15 14 13 12 11 10 10 10 10 10 9 8 8 7 7 7 7 7 7 8 8 9 9 10 10 10 10 9 8 8 8 7 7 8 8 7 7 7 8 8 8 8 8 8 8 8 7 7
Wind_Direction
199 190 189 187 183 180 176 173 171 171 172 179 185 187 183 179 178 178 178 175 171 169 167 165 164 162 161 161 161 164 167 168 171 173 173 171 164 158 154 152 151 151 152 153 152 156 164 170 20 25 35 28 25 24 14 11 13 21 30 23 13 8 359 358 356 360 21 356 350 353 346 339 337 346 351 347 350 351 357 16 55 74 42 38 28
183 179 184 184 181 180 180 176 173 173 174 179 184 188 188 184 182 183 183 181 178 177 175 172 170 169 167 166 164 165 170 172 175 176 173 172 168 163 160 158 157 155 151 151 154 163 178 190 311 360 47 30 22 10 2 9 13 20 35 28 13 23 21 2 360 11 24 6 346 345 351 339 316 318 320 329 339 335 332 331 333 325 277 360 353
186 182 182 185 182 180 182 181 177 176 177 180 184 188 189 188 188 189 187 184 184 184 182 179 177 175 171 169 165 164 172 174 174 175 175 177 175 171 167 164 165 164 159 159 161 171 182 177 212 359 29 357 352 354 355 2 10 19 33 33 20 27 34 18 7 5 37 50 348 337 5 358 316 318 315 322 329 328 325 311 298 289 246 284 328
192 188 184 183 181 181 184 183 179 177 179 182 184 186 189 193 195 194 191 188 188 187 187 184 182 181 181 180 176 175 177 177 175 176 179 183 184 183 180 176 177 183 188 195 192 184 185 193 231 279 301 307 319 340 350 358 9 12 24 35 34 27 37 33 27 33 85 87 334 12 16 303 255 360 324 316 320 320 323 310 288 281 266 292 319
194 191 184 181 182 185 187 184 180 181 185 187 187 187 189 194 198 197 193 192 190 189 190 188 186 187 189 189 188 188 186 183 182 183 185 189 192 193 195 195 196 207 220 220 215 202 197 222 251 269 293 311 318 333 343 353 7 10 20 34 34 30 31 31 43 57 77 95 261 215 257 287 320 346 322 315 324 323 332 331 286 276 290 307 320
196 193 186 183 185 184 184 184 183 187 192 191 189 190 190 192 197 198 196 195 193 193 193 192 191 193 193 190 189 191 190 191 192 188 189 192 195 199 204 208 211 215 223 221 215 214 219 238 255 260 273 309 312 313 334 343 357 6 16 26 28 33 37 26 44 58 56 59 65 260 287 301 314 333 315 315 327 325 345 17 36 17 345 328 331
197 196 190 187 186 182 183 188 189 193 194 190 190 191 191 194 198 198 198 198 196 196 196 196 197 198 198 195 194 197 196 201 202 197 195 198 202 208 212 217 220 216 217 218 214 214 225 240 255 253 247 273 284 278 325 334 344 355 9 21 22 33 41 31 26 36 40 47 51 55 50 265 258 287 306 321 317 319 14 29 47 32 360 347 352
193 194 192 189 187 185 186 191 194 194 190 188 190 191 192 198 201 199 200 200 199 199 199 200 202 202 203 203 203 207 207 211 213 210 210 213 215 218 220 224 224 218 216 218 216 215 223 237 250 244 235 240 243 266 309 314 319 335 353 6 10 22 36 33 28 34 43 52 58 60 62 76 92 334 310 319 316 314 13 38 34 14 7 10 10
191 192 192 190 190 190 191 192 194 191 188 190 191 190 192 198 203 201 201 202 201 201 201 203 205 206 208 209 211 216 218 218 217 217 219 221 222 225 226 227 225 222 221 221 219 219 223 232 241 234 228 230 230 251 290 303 311 313 337 351 356 360 22 32 29 35 43 49 61 68 64 66 79 73 351 327 326 322 329 12 16 355 5 23 6
194 193 191 192 193 193 192 190 190 189 190 190 189 189 189 194 201 202 202 202 202 203 203 204 206 209 212 213 216 222 224 221 219 221 223 223 224 227 231 229 225 224 226 227 226 226 227 230 236 229 223 225 228 241 266 296 301 275 294 321 336 335 342 25 22 27 40 45 53 64 66 49 53 81 47 353 331 321 314 324 355 344 347 12 7
195 194 192 194 194 192 190 187 187 187 188 187 186 188 190 192 198 200 201 202 203 204 204 205 206 210 214 217 220 225 226 224 222 223 226 227 226 228 232 232 229 228 229 232 231 231 230 229 231 227 224 225 228 239 257 286 296 266 273 293 318 323 300 330 355 4 22 32 38 44 46 35 30 38 24 358 342 336 330 334 7 335 335 357 6
193 193 192 190 188 186 186 186 184 183 184 186 188 188 188 192 197 198 201 203 204 204 205 207 209 211 214 218 222 227 229 227 225 225 228 229 226 228 234 235 235 234 232 233 232 231 229 228 230 231 230 231 232 236 245 262 276 267 279 286 285 302 297 300 317 323 342 359 11 23 25 20 24 21 14 10 8 14 360 360 39 345 320 341 354
192 190 189 185 180 180 183 183 181 182 186 188 190 189 188 193 198 199 202 204 205 206 207 209 212 214 216 217 221 226 229 229 228 227 229 230 227 228 232 235 238 238 236 236 233 228 230 232 235 238 239 240 237 235 236 241 249 262 279 284 271 280 291 284 288 296 306 320 328 346 356 2 21 19 11 20 23 18 326 325 16 342 314 338 354
192 189 189 185 181 181 184 182 181 186 190 190 191 192 189 191 198 201 204 206 207 207 209 211 214 216 217 218 220 224 227 229 230 229 231 234 234 231 232 233 236 239 238 239 236 229 232 237 239 243 248 247 242 238 236 238 243 254 269 274 269 274 280 278 279 283 287 298 306 302 290 293 356 13 346 320 300 298 308 327 349 320 316 337 2
188 188 189 185 181 182 182 182 184 189 190 190 191 191 190 193 199 203 205 208 209 209 210 212 214 217 219 219 220 224 226 229 232 233 235 239 238 236 237 236 234 237 241 245 243 236 235 240 241 245 251 251 249 243 239 240 243 250 260 265 269 275 278 276 276 274 278 289 298 303 286 266 274 301 295 299 287 283 299 325 332 315 321 334 347
184 189 189 185 181 182 182 183 187 190 189 190 189 190 191 194 201 205 207 209 210 210 211 213 215 217 219 220 221 224 227 230 232 234 237 239 239 239 241 240 236 238 244 250 249 242 239 243 245 249 255 258 257 250 242 240 243 246 252 257 261 269 273 272 274 274 275 280 284 292 288 269 266 269 280 306 290 268 281 295 311 309 321 332 331
182 188 186 183 182 183 185 187 188 189 190 190 189 191 193 195 200 204 206 208 210 211 212 214 216 218 219 220 222 225 228 228 229 233 236 238 238 239 240 238 237 240 244 247 248 247 245 246 250 254 258 261 261 256 246 241 244 245 245 251 254 259 269 272 273 274 275 277 275 278 281 272 269 266 265 280 307 321 292 271 273 261 255 295 315
182 186 184 182 182 183 185 189 191 191 191 191 192 194 196 197 201 202 202 205 208 210 211 213 215 217 218 220 221 224 227 227 226 230 233 236 238 238 235 235 237 240 243 245 247 248 249 249 254 258 260 261 263 262 253 247 249 250 249 255 261 263 268 271 270 270 270 270 270 272 272 270 269 266 261 269 291 305 296 281 272 246 230 243 282
183 183 185 184 184 185 185 189 193 192 192 194 195 195 196 199 201 202 204 205 207 207 208 211 214 213 215 218 220 222 225 226 227 230 232 234 235 234 233 234 236 239 244 249 248 245 245 249 254 257 258 259 263 264 259 254 255 257 256 259 264 267 267 264 265 265 263 264 266 266 266 267 267 262 259 265 280 289 286 281 275 252 232 232 255
182 179 184 185 187 188 187 189 192 192 193 195 194 194 197 199 200 203 204 204 205 205 206 210 211 211 213 216 218 221 225 227 229 231 232 232 231 230 230 231 233 237 242 247 248 244 242 244 247 251 251 254 260 262 260 259 261 262 263 262 264 267 265 261 260 261 261 261 263 265 263 262 261 257 256 260 268 275 274 268 260 244 231 229 234
175 177 186 190 190 190 190 190 190 190 191 192 194 195 197 199 200 203 203 202 203 204 206 210 210 210 213 216 218 221 225 227 228 230 231 229 229 229 228 228 231 237 239 241 245 244 244 244 245 247 249 252 258 260 262 264 266 266 266 265 265 265 264 260 258 259 260 259 260 263 264 261 258 255 256 258 263 268 266 256 244 232 225 223 222
171 177 188 190 192 193 192 189 187 187 188 190 194 194 195 198 200 201 202 203 205 205 205 207 209 212 214 215 216 218 223 225 224 226 228 227 229 229 229 230 230 235 237 235 236 237 241 245 246 247 250 252 255 258 260 263 266 266 261 259 258 260 261 258 256 257 256 255 256 259 261 263 259 254 254 258 261 264 264 258 244 235 230 224 222
172 172 188 189 189 192 191 189 189 189 189 192 195 194 196 198 197 197 199 202 204 204 204 206 209 214 215 213 212 215 220 221 219 222 225 226 227 228 232 233 229 229 231 230 230 230 237 245 247 248 250 252 254 256 256 261 265 262 255 253 254 257 258 257 256 256 254 253 254 256 259 261 259 256 255 256 259 262 265 263 251 240 237 234 229
158 157 178 184 177 182 187 192 195 195 194 196 197 196 198 199 196 196 199 201 203 202 202 207 212 214 214 212 210 211 214 215 216 219 223 225 226 227 231 232 228 225 227 229 232 232 238 245 245 245 249 251 252 253 254 258 260 256 251 251 254 257 258 258 257 258 258 257 255 256 258 258 257 258 257 254 255 256 257 258 253 242 239 241 237
136 136 139 140 143 161 177 190 198 199 199 203 208 207 203 200 200 200 200 202 206 207 206 210 213 213 211 210 210 210 211 211 213 216 219 222 224 225 229 230 227 225 224 227 233 235 239 242 240 240 245 249 251 252 253 253 253 253 251 250 252 255 256 256 257 259 259 259 259 259 259 259 260 260 257 253 251 251 251 251 250 244 240 244 242
92 104 116 125 131 143 152 160 176 188 187 186 203 218 218 211 209 205 201 204 209 211 210 210 210 208 209 211 212 211 211 211 212 215 217 218 219 220 223 225 224 223 222 223 226 231 234 237 238 239 241 246 250 252 253 252 250 251 251 250 250 252 254 255 257 257 257 256 258 260 260 261 262 263 261 258 254 252 251 250 249 247 243 243 243
80 92 110 119 124 136 145 151 164 180 186 181 187 201 207 210 215 217 216 215 214 213 210 208 207 205 206 210 212 212 212 212 213 215 215 215 216 218 220 223 223 222 223 223 222 225 229 233 236 238 240 245 250 252 254 255 254 252 251 251 249 250 254 260 265 267 263 259 257 258 260 260 260 261 261 261 260 259 256 254 253 251 247 247 245
81 90 108 122 136 151 157 162 168 178 188 193 194 195 194 196 203 211 221 226 225 221 215 209 204 203 205 207 208 209 211 212 214 215 215 213 213 215 216 219 222 224 227 227 225 224 226 228 231 236 242 245 248 252 253 256 258 254 251 251 251 250 251 255 265 271 269 265 262 259 259 259 258 259 260 261 262 262 260 260 257 252 250 251 251
100 112 129 148 163 165 164 171 175 177 184 194 200 199 196 194 196 203 214 222 224 224 226 222 212 207 208 209 208 208 209 210 210 211 212 211 210 214 217 217 219 222 224 226 227 227 227 226 229 236 242 242 243 246 248 253 258 254 253 256 257 256 257 257 260 263 264 265 264 260 259 261 263 264 264 263 261 259 260 261 259 256 253 250 250
107 119 157 204 174 99 135 164 181 191 194 199 203 205 202 198 197 201 209 215 218 219 223 228 229 224 217 211 209 208 208 206 205 208 213 216 217 219 221 222 222 221 221 222 226 229 230 231 231 235 240 241 241 243 248 256 258 255 259 264 262 260 265 265 260 258 260 261 260 259 262 268 273 273 268 264 263 260 258 258 257 257 256 253 250
56 53 337 284 287 310 176 186 195 203 206 207 211 214 212 207 206 207 208 210 214 217 217 220 229 235 232 220 211 210 210 209 210 216 219 220 220 220 221 224 225 225 226 227 228 230 231 231 231 231 238 246 247 249 254 259 258 256 258 259 259 259 263 265 264 261 260 259 259 262 266 270 275 277 272 269 269 265 260 261 261 259 258 253 247
33 22 3 338 301 272 239 224 219 216 217 219 221 222 221 218 213 211 211 210 212 216 218 216 217 222 227 223 216 214 213 211 213 219 222 220 219 219 221 223 222 224 228 231 233 235 235 235 234 232 238 249 254 255 257 255 256 261 260 251 249 250 252 257 261 261 258 258 261 264 266 267 270 275 277 275 274 271 267 265 265 264 264 261 258
26 12 4 357 336 315 293 271 252 237 235 235 233 231 229 227 221 215 213 212 212 215 218 216 212 212 217 222 223 222 220 218 217 219 222 221 219 220 221 223 223 226 229 232 235 238 241 243 244 245 246 248 249 253 256 253 253 261 263 257 252 249 250 253 256 257 257 259 263 265 266 266 269 277 282 278 275 275 275 273 271 270 270 271 271
26 17 10 1 351 345 331 310 293 277 265 256 248 243 240 236 229 219 212 208 207 211 212 210 212 216 217 221 224 222 219 220 219 218 219 220 220 221 222 224 226 228 229 233 237 240 244 247 250 253 251 241 239 249 255 255 254 258 262 262 259 254 255 258 258 257 257 260 263 265 266 268 269 274 280 281 279 279 280 280 279 276 271 269 268
36 29 23 17 14 13 7 352 331 305 289 277 265 255 247 240 230 216 207 203 203 205 204 203 207 210 210 212 215 215 215 219 218 217 218 217 215 216 218 220 222 223 223 227 230 233 238 243 247 247 239 230 237 248 252 250 251 254 257 261 260 255 256 259 259 259 260 261 264 267 268 271 273 274 279 282 282 281 281 281 283 285 278 270 262
44 39 33 28 28 29 31 33 30 16 352 324 295 272 255 243 232 220 208 202 201 200 200 200 202 206 211 212 210 208 215 223 220 217 220 219 211 203 201 202 205 209 210 210 212 215 219 229 237 235 231 236 246 251 252 250 251 254 256 257 257 256 256 257 257 258 262 264 266 269 271 274 276 278 281 281 279 278 277 277 273 272 273 267 258
52 49 42 36 35 34 36 40 40 36 26 15 356 305 261 239 229 223 213 204 198 194 195 197 200 205 212 215 213 211 215 223 220 216 223 238 240 228 219 212 205 205 211 209 206 211 218 227 234 236 237 243 248 250 252 255 258 260 261 259 257 257 256 256 256 258 262 264 267 270 273 276 278 279 278 277 276 275 269 245 233 251 254 248 251
55 50 43 39 37 35 36 40 43 44 41 41 44 41 26 180 197 205 198 188 179 174 177 181 186 193 199 202 203 200 199 202 203 211 229 245 252 253 252 246 229 214 228 232 217 213 225 234 237 237 238 240 244 250 254 258 261 263 263 262 261 260 258 258 259 261 264 267 269 269 269 270 271 273 275 277 277 275 268 241 234 244 242 235 236
57 51 47 47 46 45 45 45 46 50 52 54 57 58 56 55 61 83 104 116 131 141 148 151 153 161 168 172 173 170 172 177 175 183 212 227 230 233 238 245 247 237 245 248 230 210 217 223 227 232 233 233 240 248 253 257 260 262 263 263 265 267 267 266 266 268 270 270 269 266 265 264 263 266 274 279 278 273 267 260 253 247 239 237 235
58 56 54 55 54 51 48 44 44 51 58 61 62 60 56 53 57 64 63 59 72 93 106 111 114 120 126 130 131 132 135 140 144 154 174 197 214 218 220 230 243 253 264 268 259 227 212 204 202 212 218 224 237 248 255 259 263 267 269 269 270 271 272 272 271 272 274 272 266 267 271 271 269 269 275 279 277 269 259 251 245 238 237 245 248
61 58 58 59 58 57 56 52 52 56 62 65 65 61 55 55 58 59 58 59 66 73 76 82 88 93 96 98 100 103 106 107 112 128 153 171 197 208 211 221 226 231 245 244 226 202 181 159 147 148 135 106 255 266 276 276 278 286 287 283 276 269 272 277 277 277 279 279 276 276 278 278 275 274 277 277 272 265 253 244 242 244 248 253 255
62 58 59 62 62 61 60 58 58 62 65 67 68 64 59 56 57 58 61 65 70 73 76 77 78 79 80 81 81 82 83 83 86 92 96 75 54 54 105 193 202 170 154 163 162 152 135 117 108 105 91 71 57 30 3 337 325 324 310 297 285 279 279 282 284 285 285 286 288 287 284 282 277 275 276 275 267 261 255 251 250 251 253 253 250
63 57 57 62 64 62 61 59 61 65 68 68 70 69 66 65 64 63 64 67 71 75 78 75 71 72 74 74 73 73 74 75 75 78 80 74 61 56 61 73 88 98 97 93 94 102 106 99 93 92 88 82 75 66 65 66 63 53 25 345 318 299 293 289 288 288 286 290 296 295 292 289 280 270 264 261 257 254 252 251 250 248 247 247 242
68 63 58 60 65 64 62 61 61 65 68 68 69 69 70 71 73 70 68 71 74 75 77 78 75 73 71 70 67 64 64 68 70 69 66 65 65 65 65 71 81 85 81 75 74 83 91 92 90 90 90 94 95 86 76 74 70 64 52 34 21 10 359 356 349 334 319 310 304 301 299 294 283 273 263 255 251 249 248 248 247 244 240 236 235
75 70 64 63 67 68 66 64 62 63 68 70 69 68 68 72 78 79 78 81 81 78 78 80 80 79 78 77 73 66 58 57 62 64 61 59 63 69 72 73 74 75 75 76 75 77 82 86 87 86 84 86 87 77 67 64 63 60 53 41 32 26 23 22 21 14 358 333 309 301 302 298 289 285 281 275 272 268 259 252 245 237 229 222 217
82 76 73 72 73 72 67 63 58 57 62 66 68 70 71 72 78 82 83 87 88 85 82 79 78 82 84 82 80 77 69 62 62 67 69 67 67 70 72 72 70 69 72 77 78 75 73 74 73 68 61 59 63 63 55 49 49 49 43 36 30 25 23 22 22 20 12 355 333 319 313 310 308 303 295 293 294 284 272 267 260 242 227 213 202
80 78 78 77 75 72 65 60 55 51 54 60 63 66 70 72 76 82 89 93 93 92 90 87 86 87 86 80 77 76 75 73 72 74 77 76 73 74 75 75 75 74 74 78 80 76 69 67 67 62 50 36 32 35 30 22 23 27 26 24 21 16 14 14 12 6 1 1 1 350 334 323 329 329 314 308 307 300 297 301 296 272 239 213 204
79 81 82 79 74 71 67 61 57 55 56 58 59 60 62 65 67 73 84 91 94 95 95 95 95 92 88 84 80 76 75 78 82 86 86 83 83 85 86 84 85 86 82 80 85 84 76 69 67 58 38 16 12 15 12 8 9 12 13 15 16 12 7 7 5 357 351 359 15 19 22 34 41 26 2 339 336 339 336 329 306 272 243 219 209
83 84 84 81 77 75 71 66 62 61 59 59 58 57 58 58 60 62 67 74 85 93 94 96 97 95 90 85 82 80 82 86 89 92 91 88 88 92 95 95 93 91 87 84 88 88 82 74 67 50 29 14 8 6 7 8 8 7 7 11 14 13 10 10 8 7 14 24 31 35 48 68 69 56 52 55 51 41 37 43 50 288 226 202 190
91 89 84 80 77 75 73 69 64 61 60 59 58 56 55 55 55 57 59 61 68 78 83 88 92 94 91 89 88 90 93 95 97 97 95 93 91 90 93 94 91 86 81 78 77 75 70 64 58 48 38 32 27 18 18 20 17 11 10 13 14 15 20 23 22 28 43 51 48 51 59 64 66 64 65 67 63 55 55 65 81 97 119 150 155
96 91 83 77 74 71 71 69 64 60 58 58 57 57 54 52 51 54 57 59 61 64 69 75 85 91 90 89 91 95 99 100 101 102 102 101 97 92 87 86 85 81 77 75 73 72 70 67 64 60 54 51 51 44 37 34 31 26 24 23 23 27 33 35 34 46 60 58 50 56 59 56 57 62 64 66 70 71 68 71 82 91 92 95 99